Iliamna, AK

6:59 PM AKST on February 20, 2018 (GMT -0900)
Iliamna

Weather History for PAIL - March, 2014

Change the Weather History Date:

Monday, March 17, 2014

  Actual Average Record
Temperature  
Mean Temperature 28 °F -  
Max Temperature 34 °F 31 °F 45 °F (1970)
Min Temperature 21 °F 15 °F -30 °F (1966)
Degree Days  
Heating Degree Days 38    
Moisture  
Dew Point 29 °F    
Average Humidity 97    
Maximum Humidity 100    
Minimum Humidity 75    
Precipitation  
Precipitation 0.03 in - - ()
Sea Level Pressure  
Sea Level Pressure 29.56 in    
Wind  
Wind Speed 4 mph (NE)    
Max Wind Speed 7 mph    
Max Gust Speed -    
Visibility 5 miles    
Events Snow    
Averages and records for this station are not official NWS values.
T = Trace of Precipitation, MM = Missing Value Source: NWS Daily Summary

Daily Weather History Graph

Daily Weather History Graph

Search for Another Location

Airport or City:

Trip Planner

Search our weather history database for the weather conditions in past years. The results will help you decide how hot, cold, wet, or windy it might be!

Date:

Astronomy

Mar. 17, 2014 Rise Set
Actual Time 8:29 AM AKDT 8:27 PM AKDT
Civil Twilight 7:48 AM AKDT 9:08 PM AKDT
Nautical Twilight 6:59 AM AKDT 9:58 PM AKDT
Astronomical Twilight 6:07 AM AKDT 10:50 PM AKDT
Moon 10:24 PM AKDT (3/17) 8:30 AM AKDT (3/17)
Length of Visible Light 13h 20m
Length of Day
11h 58m
Full, 99% of the Moon is Illuminated
Mar 17
Full
Mar 23
Last Quarter
Mar 30
New
Apr 7
First Quarter
Apr 14
Full

Hourly Weather History & Observations

Time (AKDT) Temp. Windchill Dew Point Humidity Pressure Visibility Wind Dir Wind Speed Gust Speed Precip Events Conditions
12:34 AM 28.4 °F 24.6 °F 28.4 °F 100% 29.45 in 1.0 mi North 3.5 mph - 0.00 in Snow Light Snow
12:48 AM 28.4 °F 23.3 °F 28.4 °F 100% 29.45 in 1.0 mi NNE 4.6 mph - 0.01 in Snow Light Snow
12:53 AM 28.9 °F 23.9 °F 28.9 °F 100% 29.47 in 1.0 mi NNE 4.6 mph - 0.02 in Snow Light Snow
1:13 AM 28.4 °F 24.6 °F 28.4 °F 100% 29.46 in 0.8 mi North 3.5 mph - 0.01 in Snow Light Snow
1:53 AM 28.9 °F 25.2 °F 28.9 °F 100% 29.48 in 0.8 mi North 3.5 mph - 0.05 in Snow Light Snow
2:24 AM 28.4 °F 21.2 °F 28.4 °F 100% 29.47 in 1.0 mi North 6.9 mph - 0.02 in Snow Light Snow
2:53 AM 28.9 °F 23.9 °F 28.0 °F 96% 29.49 in 1.2 mi NNW 4.6 mph - 0.03 in Snow Light Snow
3:17 AM 28.4 °F - 28.4 °F 100% 29.49 in 0.8 mi Calm Calm - 0.01 in Snow Light Snow
3:42 AM 28.4 °F 23.3 °F 28.4 °F 100% 29.50 in 1.0 mi North 4.6 mph - 0.03 in Snow Light Snow
3:53 AM 28.0 °F 22.8 °F 28.0 °F 100% 29.51 in 0.8 mi North 4.6 mph - 0.04 in Snow Light Snow
4:10 AM 28.4 °F 23.3 °F 28.4 °F 100% 29.50 in 1.0 mi North 4.6 mph - 0.01 in Snow Light Snow
4:43 AM 28.4 °F 22.2 °F 28.4 °F 100% 29.51 in 1.8 mi North 5.8 mph - 0.01 in Snow Light Snow
4:53 AM 28.0 °F 20.8 °F 28.0 °F 100% 29.52 in 2.0 mi North 6.9 mph - 0.01 in Snow Light Snow
5:11 AM 28.4 °F 22.2 °F 28.4 °F 100% 29.51 in 3.0 mi North 5.8 mph - 0.00 in Snow Light Snow
5:20 AM 28.4 °F 22.2 °F 28.4 °F 100% 29.51 in 5.0 mi North 5.8 mph - 0.00 in Snow Light Snow
5:43 AM 28.4 °F 22.2 °F 28.4 °F 100% 29.51 in 2.0 mi North 5.8 mph - 0.01 in Snow Light Snow
5:53 AM 28.0 °F 22.8 °F 28.0 °F 100% 29.53 in 2.5 mi North 4.6 mph - 0.01 in Snow Light Snow
6:19 AM 28.4 °F 23.3 °F 28.4 °F 100% 29.52 in 2.5 mi North 4.6 mph - 0.00 in Snow Light Snow
6:28 AM 28.4 °F 24.6 °F 28.4 °F 100% 29.52 in 4.0 mi NNE 3.5 mph - 0.00 in Snow Light Snow
6:34 AM 28.4 °F 24.6 °F 28.4 °F 100% 29.52 in 3.0 mi NNE 3.5 mph - 0.00 in Snow Light Snow
6:42 AM 28.4 °F 24.6 °F 28.4 °F 100% 29.52 in 2.0 mi NNE 3.5 mph - 0.00 in Snow Light Snow
6:53 AM 28.9 °F 23.9 °F 28.0 °F 96% 29.53 in 2.0 mi NNE 4.6 mph - 0.00 in Snow Light Snow
7:07 AM 28.4 °F 24.6 °F 28.4 °F 100% 29.52 in 2.0 mi NNE 3.5 mph - 0.00 in Snow Light Snow
7:15 AM 28.4 °F 23.3 °F 28.4 °F 100% 29.53 in 2.0 mi North 4.6 mph - 0.00 in Snow Light Snow
7:23 AM 28.4 °F 23.3 °F 28.4 °F 100% 29.53 in 2.0 mi North 4.6 mph - 0.00 in Snow Light Snow
7:53 AM 28.9 °F 25.2 °F 28.9 °F 100% 29.54 in 2.0 mi NE 3.5 mph - 0.00 in Snow Light Snow
8:04 AM 28.4 °F - 28.4 °F 100% 29.53 in 3.0 mi Calm Calm - 0.00 in Snow Light Snow
8:40 AM 28.4 °F - 28.4 °F 100% 29.54 in 2.5 mi Calm Calm - 0.00 in Snow Light Snow
8:53 AM 28.9 °F 25.2 °F 28.9 °F 100% 29.55 in 1.8 mi ENE 3.5 mph - 0.01 in Snow Light Snow
9:23 AM 28.4 °F 23.3 °F 28.4 °F 100% 29.54 in 3.0 mi East 4.6 mph - 0.00 in Snow Light Snow
9:53 AM 28.9 °F 22.8 °F 28.9 °F 100% 29.56 in 6.0 mi ENE 5.8 mph - 0.00 in Snow Light Snow
10:53 AM 30.0 °F 24.1 °F 30.0 °F 100% 29.57 in 8.0 mi East 5.8 mph - 0.00 in   Mostly Cloudy
11:53 AM 30.0 °F 26.5 °F 30.0 °F 100% 29.59 in 10.0 mi ESE 3.5 mph - 0.00 in Snow Light Snow
12:53 PM 30.9 °F 26.2 °F 28.9 °F 92% 29.60 in 10.0 mi East 4.6 mph - 0.00 in   Overcast
1:53 PM 33.1 °F 27.7 °F 28.9 °F 85% 29.60 in 10.0 mi East 5.8 mph - N/A   Overcast
2:53 PM 33.1 °F 27.7 °F 28.0 °F 82% 29.60 in 10.0 mi ESE 5.8 mph - N/A   Overcast
3:22 PM 33.8 °F 27.7 °F 28.4 °F 81% 29.59 in 10.0 mi East 6.9 mph - N/A   Overcast
3:53 PM 34.0 °F 29.8 °F 28.9 °F 82% 29.60 in 10.0 mi ESE 4.6 mph - N/A   Overcast
4:53 PM 34.0 °F 31.0 °F 30.0 °F 85% 29.61 in 8.0 mi SE 3.5 mph - 0.00 in   Overcast
5:53 PM 32.0 °F 26.4 °F 30.9 °F 96% 29.62 in 2.5 mi SSE 5.8 mph - 0.00 in Snow Light Snow
6:01 PM 32.0 °F 26.4 °F 30.2 °F 93% 29.61 in 3.0 mi SSE 5.8 mph - 0.00 in Snow Light Snow
6:08 PM 32.0 °F 27.5 °F 30.2 °F 93% 29.61 in 3.0 mi SSE 4.6 mph - 0.00 in Snow Light Snow
6:22 PM 32.0 °F 27.5 °F 30.2 °F 93% 29.61 in 3.0 mi SSE 4.6 mph - 0.00 in Snow Light Snow
6:50 PM 32.0 °F 28.7 °F 30.2 °F 93% 29.62 in 10.0 mi SE 3.5 mph - 0.00 in   Overcast
6:53 PM 32.0 °F - 30.9 °F 96% 29.63 in 10.0 mi Calm Calm - 0.00 in   Overcast
7:35 PM 32.0 °F - 30.2 °F 93% 29.62 in 2.5 mi Calm Calm - 0.00 in Snow Light Snow
7:53 PM 30.9 °F 27.5 °F 30.9 °F 100% 29.64 in 10.0 mi NNE 3.5 mph - 0.00 in   Overcast
8:53 PM 28.0 °F 24.2 °F 28.0 °F 100% 29.65 in 10.0 mi North 3.5 mph - N/A   Clear
9:53 PM 28.9 °F - 28.0 °F 96% 29.67 in 10.0 mi Calm Calm - N/A   Overcast
10:53 PM 28.9 °F 25.2 °F 27.0 °F 92% 29.69 in 10.0 mi NNE 3.5 mph - N/A   Overcast
11:53 PM 27.0 °F - 27.0 °F 100% 29.70 in 10.0 mi Calm Calm - N/A   Mostly Cloudy